Weather History for Topeka, KS

Change the Weather History Date:

Tuesday, September 24, 2013

  Actual Average Record
Temperature  
Mean Temperature 66 °F 65 °F  
Max Temperature 73 °F 77 °F 93 °F (1984)
Min Temperature 59 °F 53 °F 31 °F (1989)
Degree Days  
Heating Degree Days 0 4  
Month to date heating degree days 5 37  
Since 1 July heating degree days 5 39  
Cooling Degree Days 1 3  
Month to date cooling degree days 229 148  
Year to date cooling degree days 1523 1376  
Growing Degree Days 18 (Base 50)    
Moisture  
Dew Point 56 °F    
Average Humidity 73    
Maximum Humidity 84    
Minimum Humidity 61    
Precipitation  
Precipitation 0.00 in 0.12 in 2.53 in (1973)
Month to date precipitation 3.09 2.94  
Year to date precipitation 27.56 29.51  
Snow  
Snow 0.00 in 0.00 in 0.00 in ()
Month to date snowfall 0.0 0.0  
Year to date snowfall 24.2 11.3  
Since 1 July snowfall 0.0 0.0  
Snow Depth 0.00 in    
Sea Level Pressure  
Sea Level Pressure 29.80 in    
Wind  
Wind Speed 7 mph (WSW)    
Max Wind Speed 16 mph    
Max Gust Speed 22 mph    
Visibility 10 miles    
Events      
T = Trace of Precipitation, MM = Missing Value Source: NWS Daily Summary

Daily Weather History Graph

Daily Weather History Graph

Search for Another Location

Airport:

Trip Planner

Search our weather history database for the weather conditions in past years. The results will help you decide how hot, cold, wet, or windy it might be!

Date:

Astronomy

Sep. 24, 2013 Rise Set
Actual Time 7:12 AM CDT 7:15 PM CDT
Civil Twilight 6:45 AM CDT 7:42 PM CDT
Nautical Twilight 6:14 AM CDT 8:13 PM CDT
Astronomical Twilight 5:42 AM CDT 8:45 PM CDT
Moon 10:36 PM CDT (9/24) 12:25 PM CDT (9/24)
Length of Visible Light 12h 56m
Length of Day
12h 03m
Waning Gibbous, 73% of the Moon is Illuminated
Sep 24
Waning Gibbous
Sep 26
Last Quarter
Oct 4
New
Oct 11
First Quarter
Oct 18
Full

Hourly Weather History & Observations

Time (CDT) Temp. Dew Point Humidity Pressure Visibility Wind Dir Wind Speed Gust Speed Precip Events Conditions
12:53 AM 66.0 °F 54.0 °F 65% 29.75 in 10.0 mi SE 9.2 mph - N/A   Overcast
1:53 AM 66.9 °F 54.0 °F 63% 29.74 in 10.0 mi SSE 10.4 mph - N/A   Mostly Cloudy
2:53 AM 66.9 °F 54.0 °F 63% 29.73 in 10.0 mi South 10.4 mph - N/A   Mostly Cloudy
3:53 AM 66.0 °F 54.0 °F 65% 29.73 in 10.0 mi South 8.1 mph - N/A   Overcast
4:53 AM 64.0 °F 54.0 °F 70% 29.73 in 10.0 mi SSW 6.9 mph - N/A   Clear
5:53 AM 62.1 °F 54.0 °F 75% 29.74 in 10.0 mi SSW 5.8 mph - N/A   Clear
6:53 AM 62.1 °F 53.1 °F 72% 29.75 in 10.0 mi SSW 6.9 mph - N/A   Clear
7:53 AM 62.1 °F 54.0 °F 75% 29.76 in 10.0 mi SW 4.6 mph - N/A   Scattered Clouds
8:09 AM 63.0 °F 54.0 °F 72% 29.78 in 10.0 mi SSW 5.8 mph - N/A   Mostly Cloudy
8:53 AM 63.0 °F 55.0 °F 75% 29.77 in 10.0 mi SW 5.8 mph - N/A   Mostly Cloudy
9:53 AM 66.9 °F 55.9 °F 68% 29.78 in 10.0 mi West 10.4 mph - N/A   Mostly Cloudy
10:03 AM 66.9 °F 55.9 °F 68% 29.80 in 10.0 mi West 13.8 mph 21.9 mph N/A   Mostly Cloudy
10:53 AM 66.9 °F 55.9 °F 68% 29.80 in 10.0 mi West 10.4 mph - N/A   Overcast
11:53 AM 68.0 °F 55.9 °F 65% 29.81 in 10.0 mi West 11.5 mph - N/A   Overcast
12:53 PM 68.0 °F 57.0 °F 68% 29.82 in 10.0 mi WNW 6.9 mph - N/A   Overcast
1:10 PM 68.0 °F 57.0 °F 68% 29.84 in 10.0 mi WNW 6.9 mph - N/A   Overcast
1:53 PM 69.1 °F 57.0 °F 65% 29.83 in 10.0 mi NW 12.7 mph - N/A   Overcast
2:53 PM 70.0 °F 57.0 °F 63% 29.83 in 10.0 mi NW 10.4 mph - N/A   Overcast
3:53 PM 72.0 °F 57.0 °F 59% 29.83 in 10.0 mi North 5.8 mph - N/A   Overcast
4:53 PM 72.0 °F 57.0 °F 59% 29.83 in 10.0 mi Calm Calm - N/A   Overcast
5:53 PM 72.0 °F 57.9 °F 61% 29.84 in 10.0 mi Calm Calm - N/A   Mostly Cloudy
6:53 PM 72.0 °F 57.9 °F 61% 29.84 in 10.0 mi Calm Calm - N/A   Overcast
7:53 PM 66.9 °F 60.1 °F 79% 29.85 in 10.0 mi West 5.8 mph - N/A   Overcast
8:53 PM 64.9 °F 57.9 °F 78% 29.86 in 10.0 mi NW 5.8 mph - N/A   Clear
9:53 PM 64.0 °F 57.0 °F 78% 29.87 in 10.0 mi NW 6.9 mph - N/A   Clear
10:53 PM 63.0 °F 57.0 °F 81% 29.87 in 10.0 mi West 6.9 mph - N/A   Clear
11:53 PM 61.0 °F 55.9 °F 83% 29.88 in 10.0 mi West 5.8 mph - N/A   Clear